Location: Home
(42.5358°N, 72.7383°W)
Time: 20:54:19
(UTC-05:00)

Vanguard 2 Rocket - Pass Details

Date: 05 December 2021
Orbit: 554 x 3325 km, 32.9° (Epoch: 21 January)

Event Time Altitude Azimuth Distance (km) Brightness Sun altitude
Rises 15:51:30 0° 200° (SSW) 2,869 10.5 3.3°
Reaches altitude 10° 15:54:52 10° 169° (S) 2,207 9.2 2.7°
Maximum altitude 15:57:02 13° 143° (SE) 2,221 8.9 2.4°
Drops below altitude 10° 15:59:34 10° 118° (ESE) 2,668 9.0 2.0°
Sets 16:04:40 0° 93° (E) 4,212 9.8 1.2°
